This is the latest recevied weather packets stored in our database for station/object N4CVG. If no packets are shown the sender has not sent any weather packets the latest 10 day(s).
| Time | Temp. | Humidity | Pressure | Rain* | Wind** | Luminosity | Snow |
|---|---|---|---|---|---|---|---|
| 1777920603 | 23.33° C | 57% | 1009.7 hPa | 0 mm | - | - | - |
| 1777917002 | 21.67° C | 62% | 1009.9 hPa | 0 mm | - | - | - |
| 1777912802 | 18.89° C | 67% | 1010.7 hPa | 0 mm | - | - | - |
| 1777911603 | 18.33° C | 68% | 1011 hPa | 0 mm | - | - | - |
| 1777907424 | 14.44° C | 77% | 1011.9 hPa | 0 mm | - | - | - |
| 1777893603 | 9.44° C | 92% | 1012.6 hPa | 0 mm | - | - | - |
| 1777890002 | 10° C | 86% | 1012.8 hPa | 0.51 mm | - | - | - |
| 1777885203 | 11.67° C | 69% | 1012.8 hPa | 0 mm | - | - | - |
| 1777884002 | 11.11° C | 70% | 1012.4 hPa | 0 mm | - | - | - |
| 1777882824 | 11.11° C | 70% | 1012.9 hPa | 0 mm | - | - | - |
| 1777881602 | 10.56° C | 72% | 1013 hPa | 0 mm | - | - | - |
| 1777879203 | 10.56° C | 75% | 1013.2 hPa | 0 mm | - | - | - |
| 1777878002 | 11.11° C | 70% | 1013.4 hPa | 0.25 mm | - | - | - |
| 1777876202 | 11.67° C | 64% | 1013.7 hPa | 0 mm | - | - | - |
| 1777875604 | 11.67° C | 64% | 1013.8 hPa | 0 mm | - | - | - |
| 1777875002 | 11.67° C | 64% | 1014.1 hPa | 0 mm | - | - | - |
| 1777873804 | 11.67° C | 64% | 1014.1 hPa | 0 mm | - | - | - |
| 1777861203 | 13.33° C | 56% | 1015.4 hPa | 0 mm | - | - | - |
| 1777860603 | 13.33° C | 56% | 1015.2 hPa | 0 mm | - | - | - |
| 1777859404 | 13.33° C | 54% | 1015 hPa | 0 mm | - | - | - |
| 1777850403 | 16.11° C | 43% | 1015 hPa | 0 mm | - | - | - |
| 1777849224 | 16.11° C | 39% | 1015.1 hPa | 0 mm | - | - | - |
| 1777845604 | 17.22° C | 39% | 1015.4 hPa | 0 mm | - | - | - |
| 1777843824 | 16.67° C | 38% | 1015.6 hPa | 0 mm | - | - | - |
| 1777840802 | 17.22° C | 37% | 1016.6 hPa | 0 mm | - | - | - |
* Rain latest hour (hover to see other rain measurements)
** Current wind speed in m/s (hover to see current wind gust speed)